Regional Weather Roundup
Issued by NWS

Home | Current Version | Previous Version | Graphics & Text | Print | Product List | Glossary On
Versions: 1 2 3 4 5 6 7 8 9 10 11 12 13 14 15 16 17 18 19 20 21 22 23 24 25 26 27 28 29 30 31 32 33 34 35 36 37 38 39 40 41 42 43 44 45 46 47 48 49 50
680
ASUS43 KIND 061559
RWRIN

WEATHER ROUNDUP FOR INDIANA
NATIONAL WEATHER SERVICE INDIANAPOLIS IN
1100 AM EST SAT FEB 06 2016

NOTE: "FAIR" INDICATES FEW OR NO CLOUDS BELOW 12,000 FEET WITH NO
SIGNIFICANT WEATHER AND/OR OBSTRUCTIONS TO VISIBILITY.

* - STATION DOES NOT REPORT WEATHER SUCH AS PRECIPITATION OR FOG.

+ - STATION NOT QUALITY CONTROLLED BY THE NATIONAL WEATHER SERVICE.
    USE DATA WITH CAUTION...ESPECIALLY DEWPOINT AND RELATIVE
    HUMIDITY OBSERVATIONS.

INZ001>003-010>013-019-020-061700-
NORTHWEST INDIANA

CITY           SKY/WX    TMP DP  RH WIND       PRES   REMARKS
GARY /AIRPORT/ MOSUNNY   34  23  64 SW12      30.29F WCI  25
RENSSELAER +   SUNNY     32  27  80 SW12      30.31F WCI  23

$$

LMZ046-743>745-061700-
SOUTHERN LAKE MICHIGAN

STATION/POSITION TIME  TEMP    WIND        PRES    WAVE
                       AIR SEA DIR/SP/G            HT
                 (UTC) (F)     (DEG/KT/KT) (MB)    (FT)
BURNS HARBOR     1500   29     210/ 10/ 15 1026.4R
MICHIGAN CITY    1500   28     190/ 13/ 16   N/A

$$

INZ004-005-014>016-021>024-061700-
NORTH CENTRAL INDIANA

CITY           SKY/WX    TMP DP  RH WIND       PRES   REMARKS
ELKHART          N/A     86  75  70 MISG      30.30S HX  95
GOSHEN         MOSUNNY   30  24  78 SW13      30.29S WCI  20
PERU/GRISSOM   SUNNY     31  26  80 SW8       30.30S WCI  23
SOUTH BEND     SUNNY     29  23  78 SW12      30.29S WCI  19

$$

INZ006>009-017-018-025>027-061700-
NORTHEAST INDIANA

CITY           SKY/WX    TMP DP  RH WIND       PRES   REMARKS
ANGOLA *+      MOSUNNY   30  25  80 SW12      30.27S WCI  21
FORT WAYNE     PTSUNNY   29  23  78 SW12      30.31F WCI  19

$$

INZ028-029-035-036-043>045-051>053-061700-
WEST CENTRAL INDIANA

CITY           SKY/WX    TMP DP  RH WIND       PRES   REMARKS
GREENCASTLE +  MOSUNNY   32  18  55 S5        30.34S WCI  27
LAFAYETTE      SUNNY     31  24  75 SW7       30.33F WCI  24
TERRE HAUTE    SUNNY     34  26  72 CALM      30.35F

$$

INZ030>032-037>040-046>048-054>057-064-065-061700-
CENTRAL INDIANA

CITY           SKY/WX    TMP DP  RH WIND       PRES   REMARKS
GREENWOOD *+   CLOUDY    32  27  80 SW3       30.35S
INDIANAPOLIS   PTSUNNY   31  25  78 SW7       30.33R WCI  24
-EAGLE CREEK   CLOUDY    31  25  78 SW5       30.34R WCI  26
KOKOMO *+        N/A     32  21  64 W9        30.32S WCI  24
MT COMFORT *+  CLOUDY    30  25  80 S6        30.33S WCI  24
SHELBYVILLE    CLOUDY    32  26  78 S5        30.34S WCI  27

$$

INZ033-034-041-042-049-050-058-059-061700-
EAST CENTRAL INDIANA

CITY           SKY/WX    TMP DP  RH WIND       PRES   REMARKS
MUNCIE         SUNNY     32  23  69 SW7       30.32F WCI  26

$$

INZ060-061-067>069-081>083-085>088-061700-
SOUTHWEST INDIANA

CITY           SKY/WX    TMP DP  RH WIND       PRES   REMARKS
EVANSVILLE     CLOUDY    42  28  57 W3        30.37R
HUNTINGBURG *+ CLOUDY    36  27  69 S3        30.37R

$$

INZ062-063-066-070>080-084-089>092-061700-
SOUTH CENTRAL AND SOUTHEAST INDIANA

CITY           SKY/WX    TMP DP  RH WIND       PRES   REMARKS
BLOOMINGTON    PTSUNNY   34  28  79 VRB3      30.34R
MADISON *+     SUNNY     37  27  65 CALM      30.36S
SEYMOUR +      CLOUDY    36  27  69 S3        30.36S

$$





USA.gov is the U.S. government's official web portal to all federal, state and local government web resources and services.